Location: Plymouth
(43.7570°N, 71.6890°W)
Time: 09:22:19
(UTC-05:00)

Daily predictions for brighter satellites

Satellite Brightness Start Highest point End
(mag) Time Altitude Azimuth Time Altitude Azimuth Time Altitude Azimuth
Ariane Rocket 3.4 16:33:20 10° SE 16:38:05 42° ENE 16:42:50 10° N
Cosmos 1656 Rocket 3.7 16:33:37 10° SSW 16:39:09 75° ESE 16:44:39 10° NNE
CENTAUR R/B 4.4 16:35:40 10° NNW 16:40:24 18° NNE 16:45:27 10° NE
Cosmos 1271 Rocket 4.1 16:41:10 10° NNE 16:43:54 19° ENE 16:46:39 10° ESE
Lacrosse 5 3.9 16:40:20 10° WNW 16:44:52 34° SW 16:49:24 10° S
Cosmos 1500 3.2 16:41:40 10° N 16:45:25 61° E 16:49:08 10° SSE
Cosmos 1975 Rocket 3.6 16:43:13 10° SSE 16:47:23 40° E 16:51:35 10° NNE
CZ-4 R/B 2.1 16:44:41 10° SE 16:48:05 30° ENE 16:51:32 10° N
Cosmos 1484 Rocket 3.1 16:45:53 10° SSE 16:49:45 49° ENE 16:53:39 10° N
Cosmos 1937 Rocket 3.9 16:45:07 10° S 16:50:02 45° ESE 16:54:57 10° NNE
Cosmos 1634 Rocket 4.0 16:45:59 10° S 16:52:10 75° E 16:58:25 10° NNE
Okean 1 Rocket 3.3 16:48:06 10° N 16:52:35 79° W 16:57:04 10° S
SJ-12 4.1 16:49:26 10° S 16:53:33 79° W 16:57:41 10° NNW
Meteor 1-18 Rocket 4.2 16:49:04 10° S 16:54:33 64° E 17:00:08 10° NNE
USA 238 DEB 4.3 16:49:00 10° NNW 16:55:35 39° NE 17:02:13 10° ESE
USA 238 4.3 16:49:06 10° NNW 16:55:40 39° NE 17:02:18 10° ESE
CORIOLIS 4.3 16:50:42 10° SE 16:55:56 52° ENE 17:01:11 10° N
Cosmos 1655 Rocket 4.2 16:52:01 10° N 16:58:14 52° ENE 17:04:27 10° SSE
Cosmos 1092 Rocket 4.3 16:52:13 10° NNW 16:58:26 73° W 17:04:40 10° S
SJ-7 4.3 16:55:43 10° SSE 16:59:42 70° ENE 17:03:42 10° N
Cosmos 2297 Rocket 3.2 16:55:20 10° N 16:59:54 24° NE 17:04:26 10° ESE
ERS-2 3.4 17:03:03 10° ESE 17:05:46 20° ENE 17:08:31 10° NNE
Meteor 1-4 Rocket 3.8 17:03:59 10° NNW 17:07:32 45° W 17:10:59 10° S
Cosmos 1943 Rocket 3.7 17:02:32 10° WSW 17:07:33 32° NW 17:12:37 10° N
Cosmos 1378 Rocket 4.1 17:04:18 10° SSW 17:08:41 62° W 17:13:07 10° N
Cosmos 1812 4.0 17:06:40 10° SSW 17:10:22 43° WNW 17:14:06 10° N
CZ-2C R/B 4.1 17:07:43 10° NNE 17:12:13 46° E 17:16:45 10° S
NOSS 2-3 (D) 3.9 17:08:32 10° SW 17:13:10 90° NW 17:18:27 11° NE
SMAP 3.0 17:09:45 10° SSE 17:14:24 87° ENE 17:19:05 10° NNW
CZ-2C R/B 4.2 17:09:59 10° SSW 17:14:46 37° W 17:19:35 10° NNW
IRAS Rocket 4.4 17:09:50 10° SSE 17:15:19 76° WSW 17:20:50 10° NNW
OPS 6432 4.4 17:12:51 10° SSW 17:16:33 61° SE 17:18:39 19° NE
Cosmos 2026 Rocket 4.1 17:10:29 10° N 17:16:53 84° W 17:23:14 10° S
USA 161 4.0 17:15:37 10° NNW 17:17:50 21° WNW 17:20:07 10° SW
Cosmos 1666 3.0 17:14:25 10° N 17:18:01 42° ENE 17:21:35 10° SSE
Cosmos 2266 Rocket 4.5 17:12:32 10° N 17:18:03 35° ENE 17:23:35 10° SE
Cosmos 990 Rocket 3.9 17:16:53 10° SSW 17:22:01 81° ESE 17:27:14 10° NNE
SKYMED 2 4.2 17:20:22 12° NNE 17:24:04 35° E 17:28:01 10° SSE
ALOS 2.9 17:20:44 10° SE 17:24:53 33° ENE 17:29:02 10° N
AQUARIUS 4.4 17:21:46 10° S 17:26:15 73° WSW 17:30:45 10° NNW
Meteor 1-19 Rocket 4.4 17:21:22 10° S 17:26:50 54° E 17:32:27 10° NNE
NOSS 3-2 (A) 4.4 17:20:16 10° NNW 17:27:05 39° NE 17:34:03 12° ESE
Cosmos 2150 Rocket 4.1 17:26:50 10° SSW 17:32:19 89° ESE 17:37:49 10° NNE
Meteor 1-12 Rocket 4.4 17:28:35 10° NNW 17:34:16 78° W 17:39:59 10° S
ISS -3.5 17:32:36 10° NW 17:35:49 47° NNE 17:36:46 35° ENE
MOS 1 4.3 17:32:55 10° SSE 17:38:31 61° ENE 17:44:07 10° N
Aureole 1 Rocket 4.4 17:33:42 10° NNW 17:39:24 69° WSW 17:46:46 10° S
ATLAS 2AS CENTAUR R/B 3.0 17:32:18 10° SSW 17:40:02 77° ESE 17:46:52 16° NE
Abrixas rocket 2.1 17:37:39 10° WSW 17:40:53 88° NW 17:41:53 42° ENE
BREEZE-M DEB (TANK) 3.4 17:39:15 10° WNW 17:41:33 35° N 17:42:56 26° NE
SPOT 3 Rocket 3.6 17:37:37 10° SE 17:42:37 51° ENE 17:47:37 10° N
Cosmos 489 Rocket 4.5 17:36:26 10° SSW 17:42:45 84° ESE 17:49:10 10° NNE
EO 1 Del DPAF 3.5 17:44:05 30° NE 17:45:33 46° E 17:49:13 10° S
ATLAS 3B R/B 2.5 17:42:48 10° NNW 17:49:30 69° NE 17:55:59 10° SE
Meteor 1-28 Rocket 4.1 17:46:22 10° N 17:50:00 48° WNW 17:53:37 10° SSW
Cosmos 1455 Rocket 3.1 17:48:16 10° N 17:52:43 79° W 17:57:06 10° S
Cosmos 1743 3.3 17:49:28 10° NNW 17:53:17 58° W 17:57:05 10° S
Cosmos 724 4.4 17:49:21 10° NNW 17:55:00 50° NE 17:58:18 24° ESE
Cosmos 1544 Rocket 3.9 17:52:04 10° NNW 17:56:25 66° W 18:00:42 10° S
Cosmos 158 Rocket 3.8 17:53:19 10° NNW 17:58:28 70° ENE 18:03:26 10° SSE
FENGYUN 3A 3.5 17:53:13 10° SSE 17:58:34 68° ENE 18:03:54 10° N
Atlas Centaur 2 3.8 17:56:53 10° SW 17:59:27 14° S 18:01:47 10° SSE
Cosmos 1697 Rocket 3.6 17:54:52 10° SSE 17:59:16 28° ESE 17:59:16 28° ESE
YAOGAN 1 3.2 17:55:47 10° S 18:00:02 58° W 18:04:20 10° NNW
MTI 3.9 18:00:16 36° N 18:01:27 73° WNW 18:04:41 10° SSW
NOSS 3-4 (A) 4.4 17:56:34 10° SSE 18:01:34 26° ESE 18:01:36 26° ESE
NOSS 3-4 (C) 4.5 17:56:42 10° SSE 18:01:38 26° ESE 18:01:38 26° ESE
Cosmos 2082 3.6 17:56:23 10° NNW 18:01:58 61° ENE 18:07:31 10° SE
BREEZE-M DEB (TANK) 3.7 18:02:43 10° WNW 18:05:41 49° SSW 18:14:39 10° SE
Meteor 1-23 Rocket 4.2 18:04:44 10° S 18:10:24 60° E 18:13:33 26° NNE
COSMO-SKYMED 1 2.8 18:08:57 18° N 18:12:12 71° WNW 18:16:30 10° SSW
NOAA 12 4.0 18:08:49 10° SSE 18:14:06 89° WSW 18:19:24 10° NNW
Cosmos 1269 Rocket 3.9 18:10:06 10° NNW 18:15:23 62° ENE 18:17:47 32° SE
Cosmos 2227 Rocket 2.2 18:11:19 10° NNW 18:17:01 83° WSW 18:22:40 10° SSE
CZ-4 R/B 4.0 18:20:16 10° SW 18:23:11 20° W 18:26:08 10° NW
Cosmos 1125 Rocket 3.4 18:21:50 10° SSW 18:27:09 87° ESE 18:28:37 50° NNE
SJ 16-02 1.3 18:27:57 10° SSW 18:32:11 81° WSW 18:32:11 81° WSW
CENTAUR R/B 3.6 18:26:29 10° NNW 18:33:31 37° NE 18:33:46 37° NE
Nadezhda 2 Rocket 4.4 18:27:56 10° N 18:34:15 79° E 18:40:37 10° S
DELTA 2 R/B (1) 3.8 18:29:38 10° WSW 18:35:05 56° S 18:35:44 53° SSE
Cosmos 1048 Rocket 4.2 18:30:32 10° NNW 18:35:56 74° WSW 18:41:17 10° SSE
Cosmos 1980 Rocket 3.9 18:33:34 10° SSE 18:35:11 18° SSE 18:35:11 18° SSE
ERS-2 4.1 18:36:03 10° SSW 18:39:16 29° W 18:42:30 10° NW
Meteor 2-11 Rocket 4.3 18:34:41 10° S 18:40:49 77° E 18:42:28 51° NNE
Cosmos 2297 Rocket 2.7 18:38:47 10° NNW 18:44:21 59° WSW 18:49:53 10° S
USA 238 DEB 4.3 18:39:56 10° NW 18:46:51 57° WSW 18:53:50 10° SSE
USA 238 4.3 18:40:01 10° NW 18:46:57 58° WSW 18:53:57 10° SSE
ALOS 4.2 18:58:21 10° SSW 19:02:19 27° W 19:06:19 10° NW
ISS -0.2 19:09:22 10° W 19:09:28 11° W 19:09:28 11° W
Cosmos 1656 4.3 19:07:08 10° SW 19:12:28 52° WNW 19:12:28 52° WNW
Gbstr 26 Del rocket 4.3 19:07:28 10° SW 19:14:36 69° S 19:14:36 69° S
Cosmos 2278 4.5 19:09:53 10° SW 19:15:20 47° WNW 19:15:39 46° NW
NOSS 3-2 (A) 4.3 19:11:00 10° NW 19:18:28 64° WSW 19:21:35 39° S
NOSS 3-2 (C) 4.0 19:15:56 10° NW 19:23:29 76° WSW 19:24:22 69° S
ATLAS 2AS CENTAUR R/B 4.2 19:24:40 10° W 19:31:50 35° NW 19:34:19 30° N
Cosmos 1697 Rocket 4.3 19:37:53 10° SW 19:41:03 31° WSW 19:41:03 31° WSW
CENTAUR R/B 4.3 20:17:01 10° NW 20:20:59 34° NW 20:20:59 34° NW
